Location: Unspecified
(0.0000°N, 0.0000°E)
Time: 00:36:34
(UTC+00:00)

Altair - Visible Passes

Search period start: 25 October 2014 00:00
Search period end: 04 November 2014 00:00
Orbit: 1501 x 1683 km, 47.2° (Epoch: 24 October)

Date Brightness Start Highest point End Pass type
(mag) Time Alt. Az. Time Alt. Az. Time Alt. Az.
31 Oct 9.5 21:30:45 10° SSW 21:31:45 14° SSW 21:31:45 14° SSW visible
01 Nov 9.2 21:05:53 10° SSW 21:08:05 18° S 21:08:05 18° S visible
02 Nov 8.9 20:41:04 10° S 20:44:28 21° S 20:44:28 21° S visible
03 Nov 8.7 20:16:17 10° S 20:20:53 24° SSE 20:20:53 24° SSE visible
